Wind_Speed
13 14 14 14 15 15 15 15 16 16 17 18 18 19 20 20 20 20 21 22 22 23 24 26 26 27 27 27 28 28 28 28 28 27 28 28 28 29 30 30 29 28 28 27
14 15 15 16 16 16 15 15 16 16 16 16 17 18 19 20 20 21 21 22 22 23 24 25 26 27 27 27 27 27 27 27 27 27 27 27 27 26 28 29 29 29 28 27
15 15 16 16 16 15 15 15 15 15 16 16 17 18 18 19 20 21 22 22 23 23 23 24 25 25 25 26 27 26 25 25 26 27 26 26 27 26 26 27 28 28 27 26
16 16 16 15 15 15 15 15 15 15 16 16 17 18 17 18 18 19 20 21 23 24 24 24 25 24 25 26 27 26 25 25 26 26 27 27 26 25 25 26 27 28 28 27
16 15 14 14 15 15 15 16 16 16 17 18 18 19 17 18 18 19 20 21 23 24 25 25 25 25 25 26 26 26 25 26 26 26 27 26 25 25 25 25 26 25 25 26
15 14 14 14 15 15 15 16 17 17 17 18 18 19 19 18 19 20 21 21 22 23 24 24 24 25 25 26 26 25 25 26 26 26 26 25 25 25 25 25 24 24 24 25
15 14 14 15 15 15 15 15 16 17 17 17 17 18 18 18 18 19 20 21 21 21 21 21 22 23 23 24 25 24 25 25 25 26 26 25 25 25 25 25 24 24 25 26
14 14 14 14 14 14 14 15 17 17 17 16 16 18 17 17 18 19 19 18 18 19 20 20 20 21 22 22 22 23 24 24 25 26 26 27 26 26 26 26 25 25 26 26
14 14 14 14 14 14 15 15 15 17 16 16 16 16 16 16 17 17 17 18 18 18 19 19 19 20 21 21 21 22 23 24 25 25 26 27 25 25 25 25 25 25 25 25
13 13 14 15 15 14 14 14 15 15 16 16 15 14 15 15 15 15 16 17 18 18 18 18 19 19 19 20 21 22 23 24 25 25 25 25 25 26 26 26 26 26 25 25
14 14 14 15 15 15 14 14 14 15 15 16 15 13 13 13 15 16 16 17 17 18 18 19 20 20 21 21 21 22 24 24 25 25 25 26 26 26 25 25 26 27 27 26
16 16 15 15 14 14 13 13 13 14 15 15 15 13 13 14 15 16 16 16 17 18 19 20 21 22 22 22 23 23 24 25 25 25 25 25 25 25 25 26 27 27 27 27
15 16 15 15 14 14 13 13 13 13 14 15 15 14 14 15 16 17 18 18 19 20 21 22 22 22 23 24 24 25 25 25 25 25 24 24 24 24 25 25 25 25 26 26
14 15 14 14 14 13 13 13 14 14 15 14 15 15 15 16 17 18 19 21 22 22 23 23 23 24 24 24 25 25 25 25 25 24 24 24 24 24 24 24 24 24 24 24
14 14 15 15 14 14 13 14 15 15 15 16 16 17 17 18 19 19 21 22 22 23 24 24 25 25 25 24 24 24 24 24 24 23 23 22 22 22 22 22 22 22 22 23
14 15 15 14 15 14 14 14 15 15 15 16 16 17 18 19 20 21 22 23 24 25 25 25 25 25 25 24 24 23 22 22 22 22 21 20 20 19 19 19 19 19 20 20
16 16 15 14 15 15 13 13 14 14 15 16 17 18 19 20 21 22 23 24 24 24 24 25 25 24 24 23 22 21 20 20 20 20 19 18 17 16 16 16 16 16 17 18
16 16 16 15 15 15 13 13 13 15 15 17 18 19 19 20 22 23 23 23 23 23 24 24 24 23 22 21 20 19 19 18 17 16 16 15 15 15 15 14 14 14 15 16
16 16 16 16 15 13 13 13 14 14 15 17 18 19 20 21 22 22 22 22 22 22 23 23 22 21 20 19 18 17 16 15 14 14 13 12 13 13 13 13 13 14 13 13
14 14 15 15 14 13 12 12 13 14 15 16 18 19 20 21 21 21 21 21 21 21 21 20 20 19 18 17 15 14 13 12 12 11 11 10 10 11 11 10 11 11 11 10
14 14 14 13 13 12 11 11 13 14 15 16 18 19 19 19 19 19 19 20 20 19 19 18 17 16 14 13 12 11 10 10 10 9 9 9 9 8 8 8 8 9 8 8
14 14 13 12 13 11 12 12 13 14 15 16 16 17 17 17 17 18 18 18 18 17 17 15 14 12 11 10 9 9 9 8 8 7 7 6 7 7 7 6 6 6 7 7
13 13 12 11 11 11 11 12 13 14 15 15 15 16 16 16 17 17 17 16 15 14 14 12 11 10 8 7 6 6 6 5 5 4 4 3 3 3 3 4 4 5 5 5
12 12 12 11 11 11 11 12 12 12 13 14 15 15 16 16 16 16 15 14 12 11 11 10 9 8 7 6 6 5 5 4 4 3 3 3 3 3 3 3 3 3 2 2
12 11 11 10 10 10 10 10 10 11 12 13 14 15 15 15 14 13 13 12 10 9 9 8 7 6 5 5 5 5 5 5 4 4 4 4 3 3 3 3 4 3 3 2
11 11 10 10 9 9 9 9 10 11 11 11 13 14 13 13 12 11 11 10 9 8 8 7 6 6 6 6 6 6 6 6 6 5 5 5 5 5 5 5 5 5 4 4
Wind_Direction
220 219 217 216 216 219 223 226 230 237 244 247 248 251 255 259 261 264 269 271 274 274 276 278 278 277 276 276 276 277 275 273 272 274 273 271 269 267 267 267 267 268 267 263
217 217 218 219 220 224 229 231 234 240 248 252 254 259 264 266 269 272 274 275 277 278 278 279 279 277 274 274 276 278 277 274 273 273 273 273 269 268 266 269 268 267 266 264
216 219 221 222 225 229 231 234 237 244 254 260 265 269 272 273 276 279 278 278 280 283 283 281 280 277 274 274 275 277 277 275 275 275 274 274 270 271 270 268 267 264 264 263
215 221 223 227 230 234 234 241 246 253 262 266 271 274 276 279 282 283 281 279 279 281 283 281 279 277 275 274 274 274 275 276 278 277 275 272 271 271 270 268 266 264 264 264
215 223 228 231 235 240 242 249 256 261 267 272 276 280 284 286 285 286 285 282 280 279 281 279 278 277 276 274 274 274 275 276 277 278 275 272 270 270 270 269 267 266 263 263
220 227 231 234 240 245 249 255 262 267 272 275 279 283 288 291 289 288 286 285 284 281 282 280 279 277 276 274 273 274 277 278 278 277 276 273 270 270 269 269 268 265 265 265
222 229 234 238 241 246 251 259 268 272 275 279 280 283 288 293 293 291 290 290 286 283 285 283 279 278 277 274 273 274 277 278 278 277 275 272 269 268 268 266 267 267 266 265
221 227 235 240 246 252 260 268 274 280 282 281 280 284 290 293 293 294 295 295 289 285 284 285 280 280 279 277 276 276 278 279 279 280 277 273 270 267 268 267 267 265 264 264
224 229 238 243 250 257 264 269 275 281 285 285 284 288 291 292 292 294 296 297 295 290 287 287 285 284 282 281 280 280 280 282 281 281 278 276 272 270 269 267 266 266 265 263
228 232 238 245 252 259 267 270 275 281 288 291 292 294 296 293 295 297 299 299 298 295 293 290 288 289 288 286 284 283 282 282 282 281 279 276 273 274 271 267 265 264 263 262
237 240 240 247 252 260 265 269 274 282 289 295 297 300 300 300 300 301 302 301 300 298 296 294 291 291 292 290 286 284 284 284 282 280 280 279 277 276 273 269 265 263 261 260
246 249 249 252 257 259 265 272 277 283 290 293 300 306 301 304 305 305 306 306 305 301 297 296 295 292 291 289 288 286 285 284 283 282 280 280 278 277 275 271 269 266 262 259
253 256 256 256 261 264 268 273 278 283 288 293 296 303 304 304 306 308 308 307 306 305 302 299 296 294 293 291 289 287 284 283 284 282 280 279 279 277 275 271 269 266 262 259
253 255 256 261 264 268 272 276 280 285 289 293 296 300 302 304 305 307 307 307 306 305 303 301 297 295 294 292 291 289 287 285 283 282 280 280 279 276 273 272 270 267 262 259
252 256 256 261 265 267 272 275 279 285 291 293 297 301 304 303 304 306 306 306 305 305 304 301 298 296 294 292 292 290 289 287 284 282 280 277 277 275 272 271 270 266 261 257
251 255 255 260 267 271 275 273 282 284 288 292 298 303 304 303 303 305 305 305 305 304 303 301 299 297 295 293 292 290 289 287 284 281 279 277 276 275 271 271 271 266 262 259
253 256 255 260 266 272 274 275 281 286 289 293 299 303 305 305 304 304 305 306 305 305 303 302 300 298 295 294 292 289 287 287 285 282 278 276 276 273 270 272 271 268 265 261
254 256 257 263 263 267 276 274 280 286 291 294 298 302 306 306 306 306 306 306 306 306 304 303 302 299 297 295 292 289 289 288 287 284 279 278 275 272 272 272 271 271 268 262
252 254 256 261 264 267 269 274 282 288 291 295 300 304 306 307 308 307 308 307 306 306 305 304 303 301 299 296 293 291 290 288 287 284 279 277 277 275 273 272 271 272 270 266
248 249 254 260 263 265 271 278 283 290 293 298 302 305 306 308 309 310 310 310 310 310 308 308 307 305 302 299 296 291 289 289 289 286 280 279 280 277 275 272 273 271 269 265
244 248 253 258 262 265 270 279 287 293 300 304 306 307 308 310 312 313 314 313 313 314 314 314 313 311 307 304 300 296 294 295 293 287 281 277 278 281 280 277 275 272 270 271
241 247 250 256 260 266 270 278 288 299 304 307 311 311 312 314 315 316 317 317 317 316 318 319 320 322 319 314 310 307 302 302 299 292 289 283 282 281 279 278 278 277 279 277
238 244 248 253 261 267 272 280 291 300 304 308 313 314 314 317 319 320 320 321 322 321 323 326 329 332 334 334 333 329 324 321 320 315 304 296 300 299 301 301 299 300 292 285
235 240 242 248 259 267 275 285 295 303 306 312 317 318 317 318 321 323 324 326 326 328 334 338 341 342 345 351 358 1 1 360 3 8 5 3 4 356 349 343 337 337 324 318
231 235 236 242 256 269 279 288 298 305 312 316 321 321 321 322 325 329 332 333 334 339 346 349 353 358 5 14 17 19 23 26 30 32 33 37 41 28 23 24 20 18 18 22
228 230 230 240 254 268 283 293 300 306 314 321 324 326 328 331 334 338 340 341 347 353 358 6 19 28 32 34 35 37 39 42 45 49 48 51 51 48 44 38 33 37 45 48
Height
5800 5802 5803 5805 5807 5808 5810 5812 5813 5814 5815 5816 5817 5818 5818 5818 5819 5819 5819 5819 5819 5818 5818 5817 5817 5816 5816 5816 5815 5815 5814 5814 5814 5814 5814 5815 5815 5816 5816 5816 5817 5818 5818 5819
5798 5800 5802 5803 5805 5807 5808 5810 5811 5812 5813 5813 5814 5814 5814 5814 5815 5815 5814 5814 5814 5813 5812 5812 5811 5810 5810 5810 5809 5809 5808 5808 5807 5807 5807 5808 5808 5809 5809 5810 5810 5811 5812 5813
5796 5798 5800 5802 5803 5805 5807 5808 5809 5810 5810 5810 5811 5811 5811 5810 5810 5810 5809 5809 5808 5807 5806 5805 5805 5804 5803 5803 5803 5802 5802 5802 5801 5800 5801 5801 5801 5802 5803 5803 5803 5804 5805 5806
5794 5796 5798 5800 5802 5804 5805 5806 5807 5807 5807 5807 5808 5807 5807 5806 5806 5805 5804 5803 5802 5802 5801 5799 5799 5798 5797 5797 5797 5796 5796 5796 5795 5794 5794 5794 5794 5795 5796 5796 5797 5797 5798 5798
5792 5794 5797 5799 5801 5802 5803 5804 5804 5804 5804 5804 5803 5803 5803 5802 5801 5801 5799 5798 5797 5796 5795 5793 5792 5791 5791 5790 5790 5790 5790 5790 5789 5789 5788 5788 5788 5788 5789 5789 5789 5790 5791 5792
5791 5793 5795 5797 5799 5800 5801 5801 5801 5801 5801 5801 5800 5799 5799 5798 5797 5796 5794 5793 5791 5790 5789 5787 5786 5785 5784 5784 5784 5784 5784 5783 5783 5782 5781 5781 5781 5782 5782 5782 5782 5783 5784 5785
5790 5792 5793 5795 5796 5797 5798 5799 5799 5798 5798 5797 5796 5795 5795 5794 5792 5791 5790 5788 5786 5785 5783 5782 5780 5779 5778 5778 5777 5777 5777 5777 5776 5775 5775 5774 5775 5775 5776 5776 5776 5776 5777 5777
5788 5790 5791 5792 5794 5795 5795 5796 5796 5795 5794 5794 5793 5791 5792 5790 5788 5786 5785 5783 5781 5780 5779 5777 5775 5774 5773 5772 5771 5771 5771 5770 5769 5768 5768 5767 5768 5768 5768 5768 5769 5769 5769 5770
5787 5789 5790 5790 5791 5792 5792 5792 5792 5792 5790 5790 5789 5789 5788 5786 5784 5783 5781 5779 5777 5775 5774 5773 5771 5770 5768 5767 5766 5765 5765 5764 5763 5761 5761 5761 5761 5761 5760 5760 5761 5761 5762 5762
5785 5787 5788 5788 5789 5789 5790 5789 5789 5788 5787 5786 5786 5785 5784 5782 5780 5779 5777 5775 5773 5771 5770 5768 5767 5765 5763 5762 5760 5759 5758 5757 5756 5755 5754 5753 5753 5753 5752 5753 5753 5754 5754 5755
5783 5784 5786 5786 5786 5786 5787 5787 5786 5785 5784 5783 5782 5784 5781 5779 5777 5775 5773 5771 5769 5767 5766 5764 5762 5760 5758 5756 5754 5753 5752 5750 5749 5748 5747 5746 5745 5745 5744 5745 5745 5746 5746 5747
5780 5781 5782 5783 5783 5783 5783 5783 5783 5783 5781 5780 5779 5782 5777 5775 5773 5771 5769 5767 5765 5763 5761 5759 5756 5754 5752 5750 5748 5747 5745 5743 5742 5741 5740 5739 5738 5737 5737 5737 5737 5737 5737 5738
5777 5778 5779 5780 5782 5781 5780 5780 5779 5779 5778 5777 5776 5778 5774 5772 5770 5767 5765 5763 5761 5758 5756 5753 5751 5748 5746 5744 5742 5740 5738 5737 5735 5734 5732 5731 5731 5730 5730 5729 5729 5729 5730 5730
5774 5775 5776 5777 5777 5777 5777 5777 5776 5776 5775 5774 5773 5773 5771 5768 5766 5763 5761 5758 5756 5753 5750 5747 5744 5742 5739 5737 5735 5733 5731 5730 5728 5727 5726 5725 5724 5723 5722 5722 5721 5721 5722 5723
5770 5771 5772 5773 5774 5774 5774 5774 5774 5773 5772 5771 5770 5768 5767 5764 5761 5759 5756 5753 5750 5747 5744 5741 5738 5735 5733 5730 5728 5726 5724 5723 5721 5720 5719 5718 5717 5716 5715 5715 5714 5714 5715 5715
5766 5767 5768 5770 5770 5770 5770 5771 5770 5769 5768 5767 5766 5764 5762 5759 5757 5754 5751 5748 5745 5742 5738 5735 5732 5729 5726 5724 5722 5720 5718 5716 5715 5713 5712 5711 5710 5709 5709 5709 5708 5708 5708 5709
5763 5764 5765 5766 5766 5767 5767 5767 5767 5766 5765 5764 5762 5761 5757 5754 5752 5749 5746 5743 5739 5736 5732 5729 5726 5723 5720 5718 5715 5714 5712 5710 5709 5707 5706 5706 5705 5704 5704 5703 5703 5703 5703 5703
5759 5760 5761 5762 5763 5763 5766 5764 5763 5763 5761 5760 5758 5755 5753 5750 5747 5744 5740 5737 5733 5730 5726 5723 5720 5717 5714 5712 5710 5708 5706 5705 5703 5702 5701 5701 5700 5700 5699 5699 5699 5698 5698 5698
5755 5756 5757 5758 5759 5760 5761 5760 5760 5759 5758 5756 5753 5751 5748 5745 5742 5738 5735 5732 5728 5724 5721 5717 5714 5711 5709 5706 5704 5703 5701 5700 5699 5698 5697 5697 5696 5696 5695 5695 5695 5695 5695 5695
5751 5753 5755 5755 5756 5757 5759 5758 5756 5756 5754 5752 5750 5747 5744 5741 5738 5735 5730 5727 5723 5720 5716 5712 5709 5706 5704 5702 5700 5699 5697 5696 5695 5694 5694 5693 5693 5692 5692 5692 5692 5692 5692 5692
5749 5750 5751 5752 5753 5754 5755 5754 5754 5753 5752 5749 5746 5743 5740 5737 5734 5731 5726 5722 5719 5715 5712 5709 5705 5703 5700 5699 5697 5696 5695 5693 5692 5691 5691 5690 5690 5690 5690 5690 5689 5689 5689 5689
5746 5747 5749 5749 5750 5753 5752 5751 5751 5750 5747 5745 5742 5739 5736 5733 5730 5726 5722 5719 5715 5712 5709 5706 5703 5700 5698 5696 5695 5694 5692 5691 5690 5689 5689 5688 5688 5688 5688 5688 5688 5688 5687 5687
5743 5745 5746 5748 5750 5749 5748 5748 5747 5746 5744 5741 5739 5736 5733 5730 5726 5723 5719 5716 5712 5709 5706 5704 5701 5699 5697 5695 5694 5692 5691 5690 5689 5688 5688 5687 5687 5687 5687 5687 5687 5686 5686 5686
5741 5742 5744 5745 5746 5746 5746 5745 5744 5742 5741 5739 5736 5733 5730 5727 5723 5720 5717 5713 5710 5707 5705 5702 5700 5698 5697 5695 5694 5692 5691 5690 5689 5688 5688 5687 5687 5687 5687 5686 5686 5686 5686 5686
5738 5740 5741 5743 5743 5743 5743 5742 5741 5739 5738 5736 5733 5730 5727 5724 5721 5718 5714 5712 5709 5706 5704 5702 5700 5698 5697 5695 5694 5693 5692 5690 5689 5689 5688 5688 5688 5687 5687 5687 5686 5686 5686 5686
5736 5738 5740 5741 5742 5742 5741 5740 5739 5737 5735 5733 5731 5728 5725 5722 5719 5716 5713 5711 5708 5706 5704 5702 5700 5699 5698 5696 5695 5694 5693 5691 5690 5690 5689 5689 5688 5688 5688 5687 5687 5687 5686 5686